Weather Roundup
Issued by NWS

Home | Current Version | Previous Version | Graphics & Text | Print | Product List | Glossary Off
Versions: 1 2 3 4 5 6 7 8 9 10 11 12 13 14 15 16 17 18 19 20 21 22 23 24 25 26 27 28 29 30 31 32 33 34 35 36 37 38 39 40 41 42 43 44 45 46 47 48 49 50

000
NZUS93 KARX 180610
HRRWXR

CURRENT HOURLY OBSERVATIONS ACROSS
MUCH OF THE UPPER MISSISSIPPI VALLEY
NATIONAL WEATHER SERVICE LA CROSSE WI
1200 AM CST THU DEC 18 2014


...SOUTHEAST MINNESOTA...


CITY           SKY/WX    TMP DP  RH WIND       PRES   REMARKS
ROCHESTER      CLOUDY    16  10  77 E3        30.30R
ROCHESTER/MAYO FAIR      16  10  77 CALM      30.31S
WINONA         CLEAR     18  14  86 W3        30.35R
AUSTIN         CLOUDY    16  12  86 CALM      30.30S
ALBERT LEA     CLOUDY    18  16  93 E3        30.29F
DODGE CENTER   MOCLDY    12  10  92 CALM      30.29S
PRESTON        CLOUDY    16  11  82 CALM      30.30S
OWATONNA       MOCLDY    12   9  85 CALM      30.31S
FARIBAULT      PTCLDY    12  10  92 CALM      30.32S
$$

...ELSEWHERE IN MINNESOTA...


CITY           SKY/WX    TMP DP  RH WIND       PRES   REMARKS
MINNEAPOLIS    PTCLDY    14  10  84 NE3       30.33S
INTNL FALLS    PTCLDY     1  -3  83 CALM      30.32S
DULUTH         FLURRIES  17  12  80 W5        30.28R WCI  10
RED WING       MOCLDY    12   9  85 CALM      30.32S
REDWOOD FALLS  PTCLDY     9   5  84 SW3       30.32R
MANKATO        CLOUDY    16   9  73 SE5       30.32S WCI   9
WORTHINGTON    PTCLDY     9   7  92 CALM      30.26S
FAIRMONT       PTCLDY    10   5  79 CALM      30.29S
$$

...SOUTHWEST WISCONSIN...


CITY           SKY/WX    TMP DP  RH WIND       PRES   REMARKS
LA CROSSE      MOCLDY    18  12  77 W3        30.34R
PRAIRIE DU CHI PTCLDY    18  13  83 CALM      30.33F
BOSCOBEL       CLEAR     15  11  83 CALM      30.33F
LONE ROCK      CLEAR     21  13  71 W3        30.32R
PLATTEVILLE    CLEAR     18  14  87 CALM      30.30S
FORT MC COY    CLOUDY    19  13  76 CALM      30.32R
CAMP DOUGLAS   CLOUDY    19  18  93 W5        30.30R WCI  13
VIROQUA        FAIR      15  13  91 NW3       30.28S
WIS DELLS      CLOUDY    18  14  84 SW5       30.29R WCI  11
$$

...ELSEWHERE IN WISCONSIN...


CITY           SKY/WX    TMP DP  RH WIND       PRES   REMARKS
MILWAUKEE      PTCLDY    21  13  71 W9        30.27R WCI  11
MADISON        CLEAR     18  13  80 CALM      30.29R
GREEN BAY      CLOUDY    27  21  78 W7        30.25R WCI  19
EAU CLAIRE     CLOUDY    19  13  77 CALM      30.30F
BLACK RVR FLS  CLOUDY    20  13  73 W3        30.29S
MEDFORD        CLOUDY    21  18  90 W5        30.24R WCI  14
WAUSAU         CLOUDY    24  19  81 N5        30.24R WCI  18
WIS RAPIDS     CLOUDY    19  12  74 NW6       30.28F WCI  11
MARSHFIELD     CLOUDY    20  14  77 NW8       30.25F WCI  10
RICE LAKE      CLOUDY    19  15  82 W5        30.32S WCI  13
$$

...NORTHEAST IOWA...


CITY           SKY/WX    TMP DP  RH WIND       PRES   REMARKS
DECORAH        CLOUDY    18  12  79 CALM      30.30S
MASON CITY     MOCLDY    16  12  84 N6        30.30F WCI   7
CHARLES CITY   MOCLDY    18  14  86 NE6       30.30F WCI   9
OELWEIN        CLEAR     16  12  86 N5        30.29F WCI   9
$$

...ELSEWHERE IN IOWA...


CITY           SKY/WX    TMP DP  RH WIND       PRES   REMARKS
DES MOINES     PTCLDY    21  15  78 SW5       30.31R WCI  15
IOWA CITY      PTCLDY    16  13  88 CALM      30.31F
FORT DODGE     CLEAR     14  10  85 CALM      30.29R
$$

...NORTHERN ILLINOIS...


CITY           SKY/WX    TMP DP  RH WIND       PRES   REMARKS
CHICAGO-OHARE  CLOUDY    24  15  68 NW9       30.29R WCI  14
CHICAGO-MIDWAY CLOUDY    27  16  63 NW7       30.30R WCI  19
MOLINE         CLEAR     19  15  84 CALM      30.31S
ROCKFORD       CLOUDY    23  14  68 NW6       30.32S WCI  16
PEORIA         PTCLDY    21  17  84 CALM      30.31R
$$

NOTE: "FAIR" INDICATES FEW OR NO CLOUDS BELOW 12,000 FEET WITH NO
SIGNIFICANT WEATHER AND/OR OBSTRUCTIONS TO VISIBILITY. WIND
SPEEDS ARE IN MILES-PER-HOUR.



USA.gov is the U.S. government's official web portal to all federal, state and local government web resources and services.